Regional Weather Roundup
Issued by NWS Cleveland, OH

Home | Current Version | Previous Version | Text Only | Print | Product List | Glossary On
Versions: 1 2 3 4 5 6 7 8 9 10 11 12 13 14 15 16 17 18 19 20 21 22 23 24 25 26 27 28 29 30 31 32 33 34 35 36 37 38 39 40 41 42 43 44 45 46 47 48 49 50
000
ASUS41 KCLE 161910
RWRCLE
OHIO REGIONAL WEATHER ROUNDUP
NATIONAL WEATHER SERVICE CLEVELAND, OH
300 PM EDT WED APR 16 2014

NOTE: "FAIR" INDICATES FEW OR NO CLOUDS BELOW 12,000 FEET WITH NO
SIGNIFICANT WEATHER AND/OR OBSTRUCTIONS TO VISIBILITY.

OHZ001>008-015>018-024>027-034-035-043-044-162000-
   NORTHWEST OHIO

CITY           SKY/WX    TMP DP  RH WIND       PRES   REMARKS
DEFIANCE       SUNNY     44  19  36 S9G18     30.39F
FINDLAY        SUNNY     42  22  44 S10G17    30.38F
TOLEDO EXPRESS SUNNY     43  19  38 SE9       30.40F
TOLEDO EXEC    MOSUNNY   42  23  46 SE12      30.42F
LIMA           SUNNY     45  24  43 E10       30.38F
$$

OHZ009>014-019>023-028>033-038-089-162000-
   NORTHEAST OHIO

CITY           SKY/WX    TMP DP  RH WIND       PRES   REMARKS
CLE-HOPKINS    MOSUNNY   41  18  39 VRB3      30.46F
CLE-LAKEFRONT  SUNNY     37  21  52 NE13      30.45F
CUY CO. ARPT   MOSUNNY   39  21  48 NE14      30.45F
LORAIN-ELYRIA  SUNNY     42  21  43 MISG      30.43F
ASHTABULA      SUNNY     37  16  42 VRB3      30.46F
AKRON-CANTON   SUNNY     38  16  39 E9        30.42F
WOOSTER        SUNNY     40  20  44 E8        30.42F
MANSFIELD      SUNNY     40  24  53 SE8       30.40F
YOUNGSTOWN     MOSUNNY   38  16  40 CALM      30.43F
$$

OHZ042-051>053-060>062-070>072-077>081-162000-
  SOUTHWEST OHIO

CITY           SKY/WX    TMP DP  RH WIND       PRES   REMARKS
CINC-COVINGTON PTSUNNY   47  18  31 SE10      30.35F
CINC-LUNKEN    SUNNY     47  21  35 MISG      30.38F
HAMILTON       SUNNY     48  19  31 SE9       30.38F
DAYTON         PTSUNNY   45  22  40 SE15G21   30.37F
WRIGHT-PAT AFB SUNNY     45  21  38 E13       30.37F
DAYTON GENERAL SUNNY     45  20  36 SE10G21   30.36F
WILMINGTON     SUNNY     44  18  35 SE13      30.36F
$$

OHZ036-037-039>041-045>050-054>059-063>069-073>076-082>088-162000-
  CENTRAL AND SOUTHEAST OHIO

CITY           SKY/WX    TMP DP  RH WIND       PRES   REMARKS
COLUMBUS       MOSUNNY   45  20  36 E6        30.40F
OSU AIRPORT    SUNNY     44  20  38 SE9       30.39F
BOLTON FIELD   SUNNY     43  23  45 E10       30.39F
RICKENBACK AFB SUNNY     47  14  26 E12       30.39F
NEWARK         SUNNY     44  20  38 SE8       30.40F
MARION         SUNNY     42  23  46 SE12      30.40F
LANCASTER      SUNNY     46  20  35 SE10G18   30.39F
ZANESVILLE     SUNNY     43  18  36 SE10      30.41F
NEW PHILLY     SUNNY     42  17  36 SE8       30.43F
$$



USA.gov is the U.S. government's official web portal to all federal, state and local government web resources and services.